Content
SEND FEEDBACK

Daily
Averages
Monthly
Summary
United States of America

BUFFALO BILL DAM, WYOMING


Home > North America > United States > Wyoming
Elevation: 6625 feet     Latitude: 44 30N     Longitude: 109 11W

WEATHER
 
SELECT A DAY
Number of Records: 445,697;   Date Range: 1/1/95 - 9/13/14
 
SHARE

PRINT THIS DATA

[ ← Previous Day ]
WEATHER ALMANAC - FEBRUARY 13, 2013
[ Next Day → ]
[ °C ]   °F
Weather ElementAverageHighLow
Temperature37.7 °F44.6 °F (10:55 am)28.4 °F (10:55 pm)
Dewpoint19.3 °F26.6 °F (10:35 pm)15.8 °F (12:35 am)
Humidity49.3 %86 % (10:35 pm)34 % (10:55 am)
Barometer29.92 in30.02 in (11:15 pm)29.87 in (8:55 am)
Wind Speed13 mph26.5 mph (12:55 am)
Wind Gust42.6 mph (1:15 am)
Weather ElementAverage
Visibility10 mi
Wind DirectionSSW (209.3 °)

Weather ElementTotal
Precipitation---
Heating Degree Days28.5 (Base 65)
Averaged from 60 records on February 13, 2013
WEATHER CONDITIONS BREAKOUT
WIND DIRECTION BREAKOUT
WEATHER BY HOUR - FEBRUARY 13, 2013
[ °C ]   °F
Local TimeTemperatureDewpointHumidityBarometerVisibilityWind DirectionWind SpeedGust SpeedPrecipitationEventsConditions
12:35 AM35.6 °F15.8 °F44 %29.89 in10.0 miWest (260°)25.3 mph40.3 mphClear
12:55 AM35.6 °F15.8 °F44 %29.88 in10.0 miWSW (250°)26.5 mph39.1 mphClear
1:15 AM35.6 °F15.8 °F44 %29.88 in10.0 miWSW (240°)24.2 mph42.6 mphClear
1:35 AM35.6 °F15.8 °F44 %29.90 in10.0 miWest (260°)20.7 mph42.6 mphClear
1:55 AM35.6 °F15.8 °F44 %29.90 in10.0 miWSW (250°)23.0 mph31.1 mphClear
2:35 AM35.6 °F15.8 °F44 %29.92 in10.0 miWSW (240°)25.3 mph42.6 mphClear
2:55 AM35.6 °F17.6 °F48 %29.92 in10.0 miWest (260°)17.3 mph35.7 mphClear
3:15 AM35.6 °F17.6 °F48 %29.93 in10.0 miWSW (250°)15.0 mph31.1 mphClear
3:35 AM33.8 °F17.6 °F52 %29.91 in10.0 miWest (260°)11.5 mph23.0 mphClear
4:15 AM35.6 °F17.6 °F48 %29.89 in10.0 miWNW (290°)12.7 mph20.7 mphClear
4:35 AM35.6 °F17.6 °F48 %29.89 in10.0 miWest (280°)21.9 mph35.7 mphClear
4:55 AM35.6 °F17.6 °F48 %29.89 in10.0 miWSW (250°)21.9 mph40.3 mphClear
5:15 AM35.6 °F19.4 °F52 %29.89 in10.0 miWSW (240°)9.2 mph29.9 mphClear
5:35 AM35.6 °F19.4 °F52 %29.90 in10.0 miWest (270°)12.7 mph26.5 mphClear
5:55 AM35.6 °F19.4 °F52 %29.91 in10.0 miWSW (240°)10.4 mph26.5 mphClear
6:15 AM35.6 °F19.4 °F52 %29.92 in10.0 miSW (230°)8.1 mphPartly Cloudy
6:35 AM37.4 °F19.4 °F48 %29.91 in10.0 miWSW (240°)4.6 mphScattered Clouds
6:55 AM35.6 °F19.4 °F52 %29.89 in10.0 miWSW (250°)16.1 mph32.2 mphPartly Cloudy
7:15 AM35.6 °F19.4 °F52 %29.88 in10.0 miWest (260°)20.7 mph26.5 mphClear
7:35 AM37.4 °F17.6 °F45 %29.88 in10.0 miWSW (240°)20.7 mph29.9 mphClear
7:55 AM37.4 °F17.6 °F45 %29.89 in10.0 miWSW (240°)17.3 mph28.8 mphScattered Clouds
8:15 AM37.4 °F17.6 °F45 %29.88 in10.0 miWest (260°)9.2 mph31.1 mphMostly Cloudy
8:35 AM37.4 °F17.6 °F45 %29.88 in10.0 miSW (220°)13.8 mph23.0 mphScattered Clouds
8:55 AM39.2 °F19.4 °F45 %29.87 in10.0 miSSW (210°)10.4 mph17.3 mphMostly Cloudy
9:15 AM42.8 °F17.6 °F36 %29.88 in10.0 miSW (230°)8.1 mphOvercast
9:35 AM42.8 °F17.6 °F36 %29.90 in10.0 miSSW (210°)4.6 mphMostly Cloudy
9:55 AM42.8 °F19.4 °F39 %29.90 in10.0 miNorth (350°)9.2 mph17.3 mphOvercast
10:15 AM42.8 °F19.4 °F39 %29.90 in10.0 miWNW (290°)10.4 mphPartly Cloudy
10:35 AM42.8 °F17.6 °F36 %29.90 in10.0 miWNW (300°)13.8 mph19.6 mphClear
10:55 AM44.6 °F17.6 °F34 %29.90 in10.0 miWNW (290°)9.2 mph17.3 mphClear
11:15 AM44.6 °F17.6 °F34 %29.90 in10.0 miWSW (250°)9.2 mph19.6 mphPartly Cloudy
11:35 AM44.6 °F17.6 °F34 %29.89 in10.0 miWest (270°)21.9 mph28.8 mphClear
11:55 AM44.6 °F17.6 °F34 %29.89 in10.0 miWSW (250°)19.6 mph29.9 mphClear
12:15 PM44.6 °F17.6 °F34 %29.88 in10.0 miWSW (240°)20.7 mph27.6 mphClear
12:55 PM44.6 °F17.6 °F34 %29.89 in10.0 miWest (260°)23.0 mph33.4 mphScattered Clouds
1:16 PM44.6 °F17.6 °F34 %29.89 in10.0 miWSW (250°)18.4 mph27.6 mphScattered Clouds
1:35 PM42.8 °F17.6 °F36 %29.89 in10.0 miWest (260°)16.1 mph31.1 mphPartly Cloudy
2:15 PM42.8 °F17.6 °F36 %29.90 in10.0 miWest (260°)18.4 mph32.2 mphPartly Cloudy
2:35 PM44.6 °F17.6 °F34 %29.89 in10.0 miWSW (250°)17.3 mph29.9 mphPartly Cloudy
2:55 PM42.8 °F17.6 °F36 %29.90 in10.0 miWest (270°)12.7 mph27.6 mphScattered Clouds
3:15 PM42.8 °F17.6 °F36 %29.90 in10.0 miWSW (240°)11.5 mph18.4 mphMostly Cloudy
3:55 PM42.8 °F17.6 °F36 %29.91 in10.0 miWSW (250°)15.0 mph24.2 mphMostly Cloudy
4:35 PM41.0 °F17.6 °F39 %29.92 in10.0 miWest (270°)12.7 mph19.6 mphMostly Cloudy
4:55 PM41.0 °F17.6 °F39 %29.93 in10.0 miWest (280°)15.0 mph20.7 mphMostly Cloudy
5:15 PM39.2 °F17.6 °F42 %29.93 in10.0 miWSW (250°)11.5 mph16.1 mphMostly Cloudy
5:55 PM39.2 °F17.6 °F42 %29.94 in10.0 miWest (280°)6.9 mphOvercast
6:15 PM37.4 °F21.2 °F52 %29.95 in10.0 miNE (40°)10.4 mphOvercast
6:35 PM35.6 °F23.0 °F60 %29.96 in10.0 miNE (40°)8.1 mphOvercast
6:55 PM35.6 °F23.0 °F60 %29.96 in10.0 miEast (80°)6.9 mphOvercast
7:15 PM33.8 °F21.2 °F60 %29.97 in10.0 miCalmOvercast
7:55 PM33.8 °F24.8 °F70 %29.98 in10.0 miNE (50°)3.5 mphOvercast
8:15 PM33.8 °F24.8 °F70 %29.98 in10.0 miNE (40°)3.5 mphOvercast
8:35 PM32.0 °F24.8 °F75 %29.98 in10.0 miNNE (20°)6.9 mphOvercast
8:55 PM32.0 °F24.8 °F75 %29.99 in10.0 miNorth (10°)6.9 mphOvercast
9:15 PM32.0 °F24.8 °F75 %29.99 in10.0 miNorth (360°)9.2 mphOvercast
9:55 PM30.2 °F24.8 °F80 %29.99 in10.0 miNNE (30°)5.8 mphOvercast
10:15 PM30.2 °F24.8 °F80 %30.00 in10.0 miNE (40°)5.8 mphOvercast
10:35 PM30.2 °F26.6 °F86 %30.01 in10.0 miNE (40°)5.8 mphOvercast
10:55 PM28.4 °F24.8 °F86 %30.01 in10.0 miNNE (20°)3.5 mphOvercast
11:15 PM28.4 °F24.8 °F86 %30.02 in10.0 miCalmOvercast
Hourly data recorded from KCOD, located miles away from Buffalo Bill Dam, Wyoming







STORIES FROM OUR PARTNERS